Time,TemperatureF,DewpointF,PressureIn,WindDirection,WindDirectionDegrees,WindSpeedMPH,WindSpeedGustMPH,Humidity,HourlyPrecipIn,Conditions,Clouds,dailyrainin,SolarRadiationWatts/m^2,SoftwareType,DateUTC
2013-01-08 00:15:00,21.4,13.0,30.31,SSW,210,7.0,-999.0,70,-99.99,,,0.00,0,weatherlink.com 1.10,2013-01-08 05:15:00,
2013-01-08 00:29:00,22.0,13.0,30.30,SW,218,7.0,-999.0,67,-99.99,,,0.00,0,weatherlink.com 1.10,2013-01-08 05:29:00,
2013-01-08 00:44:00,22.4,13.0,30.29,SSW,204,5.0,-999.0,67,-99.99,,,0.00,0,weatherlink.com 1.10,2013-01-08 05:44:00,
2013-01-08 00:59:00,23.1,13.0,30.29,SW,218,7.0,-999.0,66,-99.99,,,0.00,0,weatherlink.com 1.10,2013-01-08 05:59:00,
2013-01-08 01:14:00,23.0,14.0,30.28,SSW,193,6.0,-999.0,69,-99.99,,,0.00,0,weatherlink.com 1.10,2013-01-08 06:14:00,
2013-01-08 01:29:00,22.3,15.0,30.28,SW,228,6.0,-999.0,73,-99.99,,,0.00,0,weatherlink.com 1.10,2013-01-08 06:29:00,
2013-01-08 01:48:00,21.8,16.0,30.28,SSW,213,8.0,-999.0,77,-99.99,,,0.00,0,weatherlink.com 1.10,2013-01-08 06:48:00,
2013-01-08 01:59:00,22.0,17.0,30.27,SSW,192,5.0,-999.0,81,-99.99,,,0.00,0,weatherlink.com 1.10,2013-01-08 06:59:00,
2013-01-08 02:14:00,23.3,19.0,30.27,SSW,192,6.0,-999.0,84,-99.99,,,0.00,0,weatherlink.com 1.10,2013-01-08 07:14:00,
2013-01-08 02:29:00,23.2,19.0,30.27,SW,233,6.0,-999.0,85,-99.99,,,0.00,0,weatherlink.com 1.10,2013-01-08 07:29:00,
2013-01-08 02:44:00,23.3,20.0,30.26,SSW,199,7.0,-999.0,85,-99.99,,,0.00,0,weatherlink.com 1.10,2013-01-08 07:44:00,
2013-01-08 02:59:00,23.6,20.0,30.25,SW,221,4.0,-999.0,86,-99.99,,,0.00,0,weatherlink.com 1.10,2013-01-08 07:59:00,
2013-01-08 03:14:00,23.4,20.0,30.25,South,186,5.0,-999.0,86,-99.99,,,0.00,0,weatherlink.com 1.10,2013-01-08 08:14:00,
2013-01-08 03:29:00,23.3,20.0,30.25,SW,216,7.0,-999.0,86,-99.99,,,0.00,0,weatherlink.com 1.10,2013-01-08 08:29:00,
2013-01-08 03:44:00,23.8,20.0,30.24,SSW,211,8.0,-999.0,86,-99.99,,,0.00,0,weatherlink.com 1.10,2013-01-08 08:44:00,
2013-01-08 03:59:00,23.9,21.0,30.23,South,187,10.0,-999.0,87,-99.99,,,0.00,0,weatherlink.com 1.10,2013-01-08 08:59:00,
2013-01-08 04:14:00,23.6,21.0,30.23,SSW,206,2.0,-999.0,89,-99.99,,,0.00,0,weatherlink.com 1.10,2013-01-08 09:14:00,
2013-01-08 04:29:00,23.3,21.0,30.22,SSW,198,12.0,-999.0,90,-99.99,,,0.00,0,weatherlink.com 1.10,2013-01-08 09:29:00,
2013-01-08 04:44:00,23.4,22.0,30.21,SSW,196,12.0,-999.0,92,-99.99,,,0.00,0,weatherlink.com 1.10,2013-01-08 09:44:00,
2013-01-08 04:59:00,23.9,22.0,30.21,SSW,202,6.0,-999.0,91,-99.99,,,0.00,0,weatherlink.com 1.10,2013-01-08 09:59:00,
2013-01-08 05:14:00,24.1,22.0,30.21,SSW,206,9.0,-999.0,90,-99.99,,,0.00,0,weatherlink.com 1.10,2013-01-08 10:14:00,
2013-01-08 05:29:00,24.0,22.0,30.20,South,176,8.0,-999.0,90,-99.99,,,0.00,0,weatherlink.com 1.10,2013-01-08 10:29:00,
2013-01-08 05:44:00,23.9,21.0,30.20,South,184,9.0,-999.0,89,-99.99,,,0.00,0,weatherlink.com 1.10,2013-01-08 10:44:00,
2013-01-08 05:59:00,23.7,21.0,30.21,South,171,5.0,-999.0,89,-99.99,,,0.00,0,weatherlink.com 1.10,2013-01-08 10:59:00,
2013-01-08 06:14:00,23.5,20.0,30.20,SSW,213,6.0,-999.0,87,-99.99,,,0.00,0,weatherlink.com 1.10,2013-01-08 11:14:00,
2013-01-08 06:29:00,23.4,20.0,30.21,South,191,7.0,-999.0,86,-99.99,,,0.00,0,weatherlink.com 1.10,2013-01-08 11:29:00,
2013-01-08 06:44:00,23.2,19.0,30.20,South,188,4.0,-999.0,85,-99.99,,,0.00,0,weatherlink.com 1.10,2013-01-08 11:44:00,
2013-01-08 06:59:00,23.3,19.0,30.20,SSW,211,4.0,-999.0,84,-99.99,,,0.00,0,weatherlink.com 1.10,2013-01-08 11:59:00,
2013-01-08 07:14:00,23.4,19.0,30.20,SSW,201,7.0,-999.0,83,-99.99,,,0.00,9,weatherlink.com 1.10,2013-01-08 12:14:00,
2013-01-08 07:29:00,23.5,19.0,30.20,SSE,150,4.0,-999.0,82,-99.99,,,0.00,18,weatherlink.com 1.10,2013-01-08 12:29:00,
2013-01-08 07:44:00,23.9,19.0,30.21,SSW,196,6.0,-999.0,81,-99.99,,,0.00,40,weatherlink.com 1.10,2013-01-08 12:44:00,
2013-01-08 07:59:00,24.1,19.0,30.22,SSW,209,0.0,-999.0,80,-99.99,,,0.00,54,weatherlink.com 1.10,2013-01-08 12:59:00,
2013-01-08 08:14:00,24.2,19.0,30.22,SSW,199,3.0,-999.0,80,-99.99,,,0.00,67,weatherlink.com 1.10,2013-01-08 13:14:00,
2013-01-08 08:29:00,24.4,19.0,30.22,South,175,0.0,-999.0,79,-99.99,,,0.00,79,weatherlink.com 1.10,2013-01-08 13:29:00,
2013-01-08 08:44:00,24.7,19.0,30.21,South,190,3.0,-999.0,79,-99.99,,,0.00,84,weatherlink.com 1.10,2013-01-08 13:44:00,
2013-01-08 08:59:00,24.6,19.0,30.21,South,173,4.0,-999.0,79,-99.99,,,0.00,86,weatherlink.com 1.10,2013-01-08 13:59:00,
2013-01-08 09:14:00,26.1,20.0,30.22,SSW,199,4.0,-999.0,77,-99.99,,,0.00,260,weatherlink.com 1.10,2013-01-08 14:14:00,
2013-01-08 09:29:00,26.8,20.0,30.21,SW,221,9.0,-999.0,76,-99.99,,,0.00,260,weatherlink.com 1.10,2013-01-08 14:29:00,
2013-01-08 09:44:00,27.6,21.0,30.21,SW,225,5.0,-999.0,75,-99.99,,,0.00,221,weatherlink.com 1.10,2013-01-08 14:44:00,
2013-01-08 09:59:00,28.1,21.0,30.22,SW,223,5.0,-999.0,74,-99.99,,,0.00,309,weatherlink.com 1.10,2013-01-08 14:59:00,
2013-01-08 10:14:00,29.1,21.0,30.22,SW,235,5.0,-999.0,73,-99.99,,,0.00,272,weatherlink.com 1.10,2013-01-08 15:14:00,
2013-01-08 10:29:00,30.5,22.0,30.22,WSW,240,4.0,-999.0,71,-99.99,,,0.00,274,weatherlink.com 1.10,2013-01-08 15:29:00,
2013-01-08 10:44:00,31.5,22.0,30.20,WSW,237,6.0,-999.0,69,-99.99,,,0.00,339,weatherlink.com 1.10,2013-01-08 15:44:00,
2013-01-08 10:59:00,32.8,23.0,30.20,SW,227,9.0,-999.0,66,-99.99,,,0.00,362,weatherlink.com 1.10,2013-01-08 15:59:00,
2013-01-08 11:14:00,33.2,23.0,30.19,SW,224,1.0,-999.0,65,-99.99,,,0.00,309,weatherlink.com 1.10,2013-01-08 16:14:00,
2013-01-08 11:29:00,34.1,23.0,30.19,SW,234,8.0,-999.0,63,-99.99,,,0.00,306,weatherlink.com 1.10,2013-01-08 16:29:00,
2013-01-08 11:44:00,34.4,23.0,30.18,SSW,210,9.0,-999.0,63,-99.99,,,0.00,348,weatherlink.com 1.10,2013-01-08 16:44:00,
2013-01-08 11:59:00,35.5,23.0,30.18,SW,229,8.0,-999.0,61,-99.99,,,0.00,371,weatherlink.com 1.10,2013-01-08 16:59:00,
2013-01-08 12:14:00,36.6,23.0,30.18,WSW,248,8.0,-999.0,58,-99.99,,,0.00,380,weatherlink.com 1.10,2013-01-08 17:14:00,
2013-01-08 12:29:00,37.5,23.0,30.18,SW,214,11.0,-999.0,55,-99.99,,,0.00,353,weatherlink.com 1.10,2013-01-08 17:29:00,
2013-01-08 12:44:00,38.3,23.0,30.17,SW,233,8.0,-999.0,54,-99.99,,,0.00,343,weatherlink.com 1.10,2013-01-08 17:44:00,
2013-01-08 12:59:00,39.0,23.0,30.17,WSW,240,8.0,-999.0,52,-99.99,,,0.00,241,weatherlink.com 1.10,2013-01-08 17:59:00,
2013-01-08 13:14:00,39.3,22.0,30.17,SW,229,12.0,-999.0,51,-99.99,,,0.00,246,weatherlink.com 1.10,2013-01-08 18:14:00,
2013-01-08 13:29:00,39.7,23.0,30.17,West,260,9.0,-999.0,51,-99.99,,,0.00,281,weatherlink.com 1.10,2013-01-08 18:29:00,
2013-01-08 13:44:00,39.8,22.0,30.18,West,269,5.0,-999.0,50,-99.99,,,0.00,225,weatherlink.com 1.10,2013-01-08 18:44:00,
2013-01-08 13:59:00,40.0,23.0,30.18,SW,225,9.0,-999.0,50,-99.99,,,0.00,251,weatherlink.com 1.10,2013-01-08 18:59:00,
2013-01-08 14:14:00,39.9,22.0,30.18,SW,219,8.0,-999.0,50,-99.99,,,0.00,220,weatherlink.com 1.10,2013-01-08 19:14:00,
2013-01-08 14:29:00,40.0,23.0,30.19,SW,225,10.0,-999.0,50,-99.99,,,0.00,176,weatherlink.com 1.10,2013-01-08 19:29:00,
2013-01-08 14:44:00,39.5,23.0,30.19,North,349,1.0,-999.0,51,-99.99,,,0.00,102,weatherlink.com 1.10,2013-01-08 19:44:00,
2013-01-08 14:59:00,38.0,23.0,30.20,North,349,0.0,-999.0,54,-99.99,,,0.00,156,weatherlink.com 1.10,2013-01-08 19:59:00,
2013-01-08 15:14:00,37.6,23.0,30.20,North,349,0.0,-999.0,55,-99.99,,,0.00,67,weatherlink.com 1.10,2013-01-08 20:14:00,
2013-01-08 15:29:00,37.3,22.0,30.21,NNW,336,0.0,-999.0,55,-99.99,,,0.00,65,weatherlink.com 1.10,2013-01-08 20:29:00,
2013-01-08 15:44:00,37.0,22.0,30.22,NNW,333,0.0,-999.0,55,-99.99,,,0.00,54,weatherlink.com 1.10,2013-01-08 20:44:00,
2013-01-08 15:59:00,36.7,22.0,30.23,NNW,333,0.0,-999.0,56,-99.99,,,0.00,26,weatherlink.com 1.10,2013-01-08 20:59:00,
2013-01-08 16:14:00,36.3,22.0,30.23,NNW,333,0.0,-999.0,56,-99.99,,,0.00,9,weatherlink.com 1.10,2013-01-08 21:14:00,
2013-01-08 16:29:00,36.7,22.0,30.23,NNW,329,0.0,-999.0,55,-99.99,,,0.00,0,weatherlink.com 1.10,2013-01-08 21:29:00,
2013-01-08 16:44:00,36.8,22.0,30.23,West,261,4.0,-999.0,55,-99.99,,,0.00,0,weatherlink.com 1.10,2013-01-08 21:44:00,
2013-01-08 16:59:00,36.6,22.0,30.24,West,262,0.0,-999.0,55,-99.99,,,0.00,0,weatherlink.com 1.10,2013-01-08 21:59:00,
2013-01-08 17:14:00,36.5,22.0,30.24,WSW,246,5.0,-999.0,55,-99.99,,,0.00,0,weatherlink.com 1.10,2013-01-08 22:14:00,
2013-01-08 17:29:00,36.0,22.0,30.26,WSW,257,0.0,-999.0,56,-99.99,,,0.00,0,weatherlink.com 1.10,2013-01-08 22:29:00,
2013-01-08 17:44:00,35.1,21.0,30.27,NW,317,1.0,-999.0,58,-99.99,,,0.00,0,weatherlink.com 1.10,2013-01-08 22:44:00,
2013-01-08 17:59:00,33.4,21.0,30.27,NNW,327,0.0,-999.0,61,-99.99,,,0.00,0,weatherlink.com 1.10,2013-01-08 22:59:00,
2013-01-08 18:14:00,34.0,21.0,30.28,NW,326,0.0,-999.0,59,-99.99,,,0.00,0,weatherlink.com 1.10,2013-01-08 23:14:00,
2013-01-08 18:29:00,34.4,21.0,30.29,NW,325,1.0,-999.0,58,-99.99,,,0.00,0,weatherlink.com 1.10,2013-01-08 23:29:00,
2013-01-08 18:44:00,34.4,20.0,30.29,NW,323,0.0,-999.0,57,-99.99,,,0.00,0,weatherlink.com 1.10,2013-01-08 23:44:00,
2013-01-08 18:59:00,34.4,20.0,30.29,NW,323,0.0,-999.0,57,-99.99,,,0.00,0,weatherlink.com 1.10,2013-01-08 23:59:00,
2013-01-08 19:14:00,33.5,20.0,30.30,NW,323,3.0,-999.0,59,-99.99,,,0.00,0,weatherlink.com 1.10,2013-01-09 00:14:00,
2013-01-08 19:29:00,33.0,20.0,30.29,NW,323,0.0,-999.0,60,-99.99,,,0.00,0,weatherlink.com 1.10,2013-01-09 00:29:00,
2013-01-08 19:44:00,33.1,21.0,30.29,NW,323,0.0,-999.0,61,-99.99,,,0.00,0,weatherlink.com 1.10,2013-01-09 00:44:00,
2013-01-08 19:59:00,33.4,21.0,30.30,NW,323,0.0,-999.0,60,-99.99,,,0.00,0,weatherlink.com 1.10,2013-01-09 00:59:00,
2013-01-08 20:14:00,32.9,21.0,30.30,NW,323,0.0,-999.0,62,-99.99,,,0.00,0,weatherlink.com 1.10,2013-01-09 01:14:00,
2013-01-08 20:29:00,33.5,21.0,30.30,NW,323,2.0,-999.0,61,-99.99,,,0.00,0,weatherlink.com 1.10,2013-01-09 01:29:00,
2013-01-08 20:44:00,34.0,21.0,30.30,NW,323,0.0,-999.0,60,-99.99,,,0.00,0,weatherlink.com 1.10,2013-01-09 01:44:00,
2013-01-08 20:59:00,33.5,22.0,30.31,NW,323,0.0,-999.0,62,-99.99,,,0.00,0,weatherlink.com 1.10,2013-01-09 01:59:00,
2013-01-08 21:14:00,33.5,22.0,30.31,NW,325,0.0,-999.0,62,-99.99,,,0.00,0,weatherlink.com 1.10,2013-01-09 02:14:00,
2013-01-08 21:29:00,33.3,22.0,30.32,NW,325,2.0,-999.0,63,-99.99,,,0.00,0,weatherlink.com 1.10,2013-01-09 02:29:00,
2013-01-08 21:44:00,33.5,22.0,30.32,NNW,327,7.0,-999.0,64,-99.99,,,0.00,0,weatherlink.com 1.10,2013-01-09 02:44:00,
2013-01-08 21:59:00,33.2,23.0,30.32,NW,309,1.0,-999.0,65,-99.99,,,0.00,0,weatherlink.com 1.10,2013-01-09 02:59:00,
2013-01-08 22:15:00,32.4,22.0,30.34,NNW,329,6.0,-999.0,65,-99.99,,,0.00,0,weatherlink.com 1.10,2013-01-09 03:15:00,
2013-01-08 22:29:00,31.6,22.0,30.34,North,355,4.0,-999.0,67,-99.99,,,0.00,0,weatherlink.com 1.10,2013-01-09 03:29:00,
2013-01-08 22:44:00,30.7,22.0,30.33,NW,322,0.0,-999.0,69,-99.99,,,0.00,0,weatherlink.com 1.10,2013-01-09 03:44:00,
2013-01-08 22:59:00,30.4,21.0,30.34,NW,321,4.0,-999.0,69,-99.99,,,0.00,0,weatherlink.com 1.10,2013-01-09 03:59:00,
2013-01-08 23:14:00,30.6,22.0,30.34,NW,319,0.0,-999.0,69,-99.99,,,0.00,0,weatherlink.com 1.10,2013-01-09 04:14:00,
2013-01-08 23:29:00,29.9,22.0,30.33,NW,316,0.0,-999.0,71,-99.99,,,0.00,0,weatherlink.com 1.10,2013-01-09 04:29:00,
2013-01-08 23:44:00,29.4,22.0,30.33,NW,309,5.0,-999.0,73,-99.99,,,0.00,0,weatherlink.com 1.10,2013-01-09 04:44:00,
2013-01-08 23:59:00,29.3,22.0,30.33,NW,306,6.0,-999.0,74,-99.99,,,0.00,0,weatherlink.com 1.10,2013-01-09 04:59:00,